Location: *
(2.5500°S, 65.9667°W)
Time: 13:56:55
(UTC+00:00)

XW-2D - Pass Details

Date: 30 June 2022
Orbit: 495 x 515 km, 97.5° (Epoch: 15 August)

Event Time Altitude Azimuth Distance (km) Brightness Sun altitude
Rises 09:43:52 0° 22° (NNE) 2,614 ? -11.0°
Reaches altitude 10° 09:46:01 10° 29° (NNE) 1,729 ? -10.6°
Maximum altitude 09:49:34 43° 101° (ESE) 731 ? -9.7°
Drops below altitude 10° 09:53:07 10° 173° (S) 1,728 ? -8.9°
Sets 09:55:16 0° 180° (S) 2,612 ? -8.4°
